#timestamp,LO_Frequency,Hit,StdDev 
1619870415.6,286046998.8,N
1619870435.4,286046998.1,N
1619870455.3,286046998.0,N
1619870475.1,286046997.6,N
1619870495.9,286046995.7,N
1619870515.7,286046996.9,N
1619870535.5,286046994.9,N
1619870555.4,286046995.5,N
1619870575.2,286046994.7,N
1619870595.0,286046990.9,Y
1619870595.9,286046990.9,P
1619870615.8,286046994.7,N
1619870635.6,286046992.4,P
1619870655.5,286046991.0,Y
1619870675.3,286046997.8,P
1619870695.1,286046999.3,N
1619870715.9,286047000.3,N
1619870735.7,286047000.2,N
1619870755.6,286047000.4,N
1619870775.4,286047000.1,N
1619870795.2,286047002.0,N
1619870815.1,286047002.6,N
1619870816.0,286047002.6,N
1619870835.8,286047004.3,N
1619870855.6,286047002.3,N
1619870875.5,286047002.5,N
1619870895.3,286047002.6,N
1619870915.2,286046999.8,N
1619870935.9,286046998.9,N
1619870955.7,286046998.2,N
1619870975.6,286046996.9,N
1619870995.4,286046996.9,N
1619871015.2,286046996.5,N
1619871035.1,286046997.0,N
1619871036.0,286046997.0,N
1619871055.8,286046996.8,N
1619871075.7,286046999.5,N
1619871095.5,286046994.6,N
1619871115.3,286046990.9,Y
1619871135.2,286046991.8,P
1619871155.0,286046997.7,N
1619871155.9,286046997.7,N
1619871175.8,286046997.2,N
1619871195.6,286046999.2,N
1619871215.4,286046999.5,N
1619871235.3,286046999.0,N
1619871255.1,286047000.8,N
1619871275.8,286047000.8,N
1619871295.7,286046999.9,N
1619871315.5,286047002.1,N
1619871335.4,286047002.8,N
1619871355.2,286047001.5,N
1619871375.0,286047001.4,N
1619871375.9,286047001.4,N
1619871395.8,286047002.4,N
1619871415.6,286047002.0,N
1619871435.5,286047002.2,N
1619871455.3,286047002.7,N
1619871475.1,286047003.0,N
1619871495.9,286047004.2,N
1619871515.7,286047001.9,N
1619871535.5,286047003.1,N
1619871555.4,286047004.8,N
1619871575.2,286047004.9,N
1619871595.1,286047008.8,Y
1619871596.0,286047008.8,P
1619871615.8,286047006.5,N
1619871635.6,286047004.9,N
1619871655.5,286047003.8,N
1619871675.3,286047004.9,N
1619871695.2,286047005.4,N
1619871715.9,286047003.2,N
1619871735.7,286047002.1,N
1619871755.6,286047002.7,N
1619871775.4,286047001.9,N
1619871795.3,286047000.7,N
1619871815.1,286046997.6,N
1619871816.0,286046997.6,N
1619871835.8,286046994.6,N
1619871855.7,286046991.8,N
1619871875.5,286046992.1,N
1619871895.3,286046994.6,N
1619871915.2,286046997.1,N
1619871935.0,286046996.2,N
1619871935.9,286046996.2,N
1619871955.8,286046991.9,N
1619871975.6,286046991.3,N
1619871995.4,286046988.2,N
1619872015.3,286046988.2,N
1619872035.1,286046988.4,N
1619872055.8,286046986.8,N
1619872075.7,286046984.6,N
1619872095.5,286046984.4,N
1619872115.4,286046985.2,N
1619872135.2,286046982.5,N
1619872155.0,286046981.8,N
1619872155.9,286046981.8,N
1619872175.8,286046982.0,N
1619872195.6,286046978.6,N
1619872215.5,286046976.7,Y
1619872235.3,286046984.2,P
1619872255.1,286046988.4,N
1619872275.9,286046988.7,P
1619872295.7,286046991.3,N
1619872315.5,286046988.5,Y
1619872335.4,286047002.2,P
1619872355.2,286047000.0,N
1619872375.1,286047004.3,N
1619872376.0,286047004.3,N
1619872395.8,286047001.3,N
1619872415.6,286047003.8,N
1619872435.5,286047003.5,N
1619872455.3,286047004.1,N
1619872475.1,286047004.2,N
1619872495.9,286047003.8,N
1619872515.7,286047002.1,N
1619872535.6,286046999.9,N
1619872555.4,286047000.7,N
1619872575.2,286046999.9,N
1619872595.1,286046999.9,N
1619872596.0,286046999.9,N
1619872615.8,286047001.1,N
1619872635.7,286047000.8,N
1619872655.5,286046998.3,N
1619872675.3,286046996.5,N
1619872695.2,286046998.2,N
1619872715.0,286047002.8,N
1619872715.9,286047002.8,N
1619872735.7,286046999.7,N
1619872755.6,286047005.7,N
1619872775.4,286047001.5,N
1619872795.3,286046999.0,N
1619872815.1,286046997.5,N
1619872816.0,286046997.5,N
1619872835.8,286046995.1,N
1619872855.7,286046998.2,N
1619872875.5,286047002.0,N
1619872895.4,286046999.9,N
1619872915.2,286046999.5,N
1619872935.0,286047000.8,N
1619872935.9,286047000.8,N
1619872955.8,286046998.2,N
1619872975.6,286047002.4,N
1619872995.4,286047000.6,N
1619873015.3,286046998.8,N
1619873035.1,286046996.7,N
1619873055.9,286047000.1,N
1619873075.7,286047005.5,N
1619873095.5,286047006.2,N
1619873115.4,286047012.4,Y
1619873135.2,286047012.0,P
1619873155.1,286047011.4,N
1619873156.0,286047011.4,N
1619873175.8,286047009.4,N
1619873195.6,286047011.9,N
1619873215.5,286047006.3,N
1619873235.3,286047004.6,N
1619873255.1,286047004.8,N
1619873275.9,286047007.4,N
1619873295.7,286047005.8,N
1619873315.6,286047001.4,N
1619873335.4,286047001.7,N
1619873355.2,286047000.4,N
1619873375.1,286046999.7,N
1619873376.0,286046999.7,N
1619873395.8,286047000.4,N
1619873415.6,286047000.3,N
1619873435.5,286047000.6,N
1619873455.3,286046999.9,N
1619873475.2,286046998.1,N
1619873495.9,286047001.2,N
1619873515.7,286046998.8,N
1619873535.6,286046996.6,N
1619873555.4,286046999.2,N
1619873575.2,286047000.8,N
1619873595.1,286046997.3,N
1619873596.0,286046997.3,N
1619873615.8,286046997.0,N
1619873635.7,286046994.9,N
1619873655.5,286046999.5,N
1619873675.3,286046997.0,N
1619873695.2,286046994.9,N
1619873715.0,286046994.9,N
1619873715.9,286046994.9,N
1619873735.8,286046999.0,N
1619873755.6,286047002.4,N
1619873775.4,286047000.8,N
1619873795.3,286046999.8,N
1619873815.1,286047004.1,N
1619873835.8,286047001.6,N
1619873855.7,286047002.5,N
1619873875.5,286047003.6,N
1619873895.4,286047003.3,N
1619873915.2,286047003.3,N
1619873935.0,286047002.9,N
1619873935.9,286047002.9,N
1619873955.8,286047006.9,N
1619873975.6,286047008.6,N
1619873995.4,286047008.5,N
